Test XHTML 1.0 Strict Page for WU-History Testing
Histórico de la Estación METEOCORUÑA
 
Diario Datos del Noviembre 21, 2017 Unidades:  Metrico    Inglés   Ambos
« Prev Dia
Sig Dia »
Diario Semanal Mensual Anual Rango
  Actual: Max: Min: Media:
Temp: 13.9 °C 15.1 °C 13.9 °C 14.5 °C
Rocío: 5.3 °C 5.9 °C 5.3 °C 5.6 °C
Humedad: 56 % 56 % 54 % 55 %
Vel. viento: 9.7 km/h 22.5 km/h 6.4 km/h 9.3 km/h
Racha: 17.7 km/h 25.7 km/h - -
Viento:SSE - - SSE
Presión: 1019.5 hPa 1019.9 hPa 1019.2 hPa -
Lluvia: 0.0 mm      
Historical Graphs
 
 
Busqueda de Noviembre 21, 2017
Hora Temp Rocío Presión Viento Vel. viento Racha Humedad Ratio lluvia (/hora) Radiación
00:03 14.3 °C 5.6 °C 1019.9 hPa SSE 8.0 km/h 11.3 km/h 56 % 0.0 mm 0 W/m2
00:08 14.4 °C 5.7 °C 1019.9 hPa SSE 6.4 km/h 9.7 km/h 56 % 0.0 mm 0 W/m2
00:13 14.4 °C 5.7 °C 1019.9 hPa SSE 6.4 km/h 12.9 km/h 56 % 0.0 mm 0 W/m2
00:23 14.8 °C 5.8 °C 1019.9 hPa SSE 6.4 km/h 11.3 km/h 55 % 0.0 mm 0 W/m2
00:28 14.9 °C 5.7 °C 1019.9 hPa SSE 6.4 km/h 22.5 km/h 54 % 0.0 mm 0 W/m2
00:33 15.1 °C 5.8 °C 1019.9 hPa SSE 8.0 km/h 12.9 km/h 54 % 0.0 mm 0 W/m2
00:38 14.8 °C 5.6 °C 1019.9 hPa South 8.0 km/h 14.5 km/h 54 % 0.0 mm 0 W/m2
00:48 14.8 °C 5.9 °C 1019.5 hPa SSE 22.5 km/h 22.5 km/h 55 % 0.0 mm 0.0 W/m2
00:53 14.9 °C 5.9 °C 1019.9 hPa South 11.3 km/h 25.7 km/h 55 % 0.0 mm 0 W/m2
00:58 14.8 °C 5.6 °C 1019.5 hPa SSE 14.8 km/h 14.8 km/h 54 % 0.0 mm 0.0 W/m2
01:03 14.9 °C 5.7 °C 1019.9 hPa SSE 9.7 km/h 20.9 km/h 54 % 0.0 mm 0 W/m2
01:08 14.8 °C 5.6 °C 1019.2 hPa SSE 16.7 km/h 16.7 km/h 54 % 0.0 mm 0.0 W/m2
01:18 14.3 °C 5.6 °C 1019.5 hPa SE 6.4 km/h 11.3 km/h 56 % 0.0 mm 0 W/m2
01:23 14.1 °C 5.4 °C 1019.5 hPa SSE 6.4 km/h 9.7 km/h 56 % 0.0 mm 0 W/m2
01:28 14.1 °C 5.4 °C 1019.9 hPa SSE 6.4 km/h 16.1 km/h 56 % 0.0 mm 0 W/m2
01:29 14.2 °C 5.6 °C 1019.5 hPa SSE 6.4 km/h 16.1 km/h 56 % 0.0 mm 0 W/m2
01:30 14.2 °C 5.6 °C 1019.9 hPa SSE 6.4 km/h 24.1 km/h 56 % 0.0 mm 0 W/m2
01:33 14.2 °C 5.3 °C 1019.5 hPa SSE 8.0 km/h 16.1 km/h 55 % 0.0 mm 0 W/m2
01:39 14.3 °C 5.4 °C 1019.5 hPa SSE 9.7 km/h 16.1 km/h 55 % 0.0 mm 0 W/m2
01:44 14.2 °C 5.3 °C 1019.5 hPa SSE 9.7 km/h 16.1 km/h 55 % 0.0 mm 0 W/m2
01:49 14.2 °C 5.3 °C 1019.5 hPa SE 9.7 km/h 17.7 km/h 55 % 0.0 mm 0 W/m2
01:54 14.1 °C 5.4 °C 1019.5 hPa SSE 9.7 km/h 14.5 km/h 56 % 0.0 mm 0 W/m2
01:59 13.9 °C 5.3 °C 1019.5 hPa SSE 9.7 km/h 17.7 km/h 56 % 0.0 mm 0 W/m2
Meteocoruña
Agradecimientos a Weather Underground - 1.5 mb